Time,TemperatureF,DewpointF,PressureIn,WindDirection,WindDirectionDegrees,WindSpeedMPH,WindSpeedGustMPH,Humidity,HourlyPrecipIn,Conditions,Clouds,dailyrainin,SoftwareType,DateUTC
2013-08-18 00:02:00,59.4,55.2,30.17,SSE,149,0.0,0.0,86,0.00,,---,0.00,VWS V14.01,2013-08-18 05:02:00,
2013-08-18 00:07:00,59.1,54.9,30.17,SSE,149,0.0,0.0,86,0.00,,---,0.00,VWS V14.01,2013-08-18 05:07:00,
2013-08-18 00:12:00,59.1,54.9,30.17,SSE,149,0.0,0.0,86,0.00,,---,0.00,VWS V14.01,2013-08-18 05:12:00,
2013-08-18 00:17:00,59.2,55.0,30.17,SSE,149,0.0,0.0,86,0.00,,---,0.00,VWS V14.01,2013-08-18 05:17:00,
2013-08-18 00:22:00,59.3,55.1,30.17,SSE,149,0.0,0.0,86,0.00,,---,0.00,VWS V14.01,2013-08-18 05:22:00,
2013-08-18 00:28:00,59.2,55.0,30.17,SSE,149,0.0,0.0,86,0.00,,---,0.00,VWS V14.01,2013-08-18 05:28:00,
2013-08-18 00:33:00,59.1,54.9,30.17,SSE,148,0.0,0.0,86,0.00,,---,0.00,VWS V14.01,2013-08-18 05:33:00,
2013-08-18 00:38:00,58.8,54.6,30.17,SSE,149,0.0,0.0,86,0.00,,---,0.00,VWS V14.01,2013-08-18 05:38:00,
2013-08-18 00:43:00,58.9,54.7,30.17,SSE,149,0.0,0.0,86,0.00,,---,0.00,VWS V14.01,2013-08-18 05:43:00,
2013-08-18 00:48:00,58.8,55.0,30.17,SSE,149,0.0,0.0,87,0.00,,---,0.00,VWS V14.01,2013-08-18 05:48:00,
2013-08-18 00:53:00,58.5,54.7,30.17,SSE,149,0.0,0.0,87,0.00,,---,0.00,VWS V14.01,2013-08-18 05:53:00,
2013-08-18 00:58:00,58.4,54.9,30.17,SSE,151,0.0,0.0,88,0.00,,---,0.00,VWS V14.01,2013-08-18 05:58:00,
2013-08-18 01:03:00,58.5,54.7,30.17,SSE,150,0.0,0.0,87,0.00,,---,0.00,VWS V14.01,2013-08-18 06:03:00,
2013-08-18 01:08:00,58.2,54.4,30.17,SSE,150,0.0,0.0,87,0.00,,---,0.00,VWS V14.01,2013-08-18 06:08:00,
2013-08-18 01:13:00,58.2,54.7,30.17,SSE,151,0.0,0.0,88,0.00,,---,0.00,VWS V14.01,2013-08-18 06:13:00,
2013-08-18 01:18:00,58.2,54.7,30.17,SSE,150,0.0,0.0,88,0.00,,---,0.00,VWS V14.01,2013-08-18 06:18:00,
2013-08-18 01:23:00,58.0,54.5,30.17,SSE,151,0.0,0.0,88,0.00,,---,0.00,VWS V14.01,2013-08-18 06:23:00,
2013-08-18 01:28:00,57.6,54.1,30.17,SSE,151,0.0,0.0,88,0.00,,---,0.00,VWS V14.01,2013-08-18 06:28:00,
2013-08-18 01:33:00,57.5,54.3,30.17,SSE,150,0.0,0.0,89,0.00,,---,0.00,VWS V14.01,2013-08-18 06:33:00,
2013-08-18 01:38:00,57.6,54.4,30.17,SSE,151,0.0,0.0,89,0.00,,---,0.00,VWS V14.01,2013-08-18 06:38:00,
2013-08-18 01:43:00,57.6,54.1,30.17,SSE,150,0.0,0.0,88,0.00,,---,0.00,VWS V14.01,2013-08-18 06:43:00,
2013-08-18 01:48:00,57.4,54.2,30.17,SSE,150,0.0,0.0,89,0.00,,---,0.00,VWS V14.01,2013-08-18 06:48:00,
2013-08-18 01:53:00,57.0,54.1,30.17,SSE,150,0.0,0.0,90,0.00,,---,0.00,VWS V14.01,2013-08-18 06:53:00,
2013-08-18 01:58:00,56.7,53.8,30.17,SSE,151,0.0,0.0,90,0.00,,---,0.00,VWS V14.01,2013-08-18 06:58:00,
2013-08-18 02:03:00,57.0,54.1,30.17,SSE,150,0.0,0.0,90,0.00,,---,0.00,VWS V14.01,2013-08-18 07:03:00,
2013-08-18 02:08:00,57.0,53.8,30.17,SSE,151,0.0,0.0,89,0.00,,---,0.00,VWS V14.01,2013-08-18 07:08:00,
2013-08-18 02:13:00,56.8,53.9,30.17,SSE,150,0.0,0.0,90,0.00,,---,0.00,VWS V14.01,2013-08-18 07:13:00,
2013-08-18 02:18:00,56.8,53.9,30.17,SSE,150,0.0,0.0,90,0.00,,---,0.00,VWS V14.01,2013-08-18 07:18:00,
2013-08-18 02:23:00,56.4,53.5,30.17,SSE,150,0.0,0.0,90,0.00,,---,0.00,VWS V14.01,2013-08-18 07:23:00,
2013-08-18 02:28:00,55.9,53.3,30.17,SSE,150,0.0,0.0,91,0.00,,---,0.00,VWS V14.01,2013-08-18 07:28:00,
2013-08-18 02:33:00,55.9,53.6,30.17,SSE,150,0.0,0.0,92,0.00,,---,0.00,VWS V14.01,2013-08-18 07:33:00,
2013-08-18 02:38:00,56.1,53.8,30.17,SSE,150,0.0,0.0,92,0.00,,---,0.00,VWS V14.01,2013-08-18 07:38:00,
2013-08-18 02:43:00,56.2,53.6,30.17,SSE,150,0.0,0.0,91,0.00,,---,0.00,VWS V14.01,2013-08-18 07:43:00,
2013-08-18 02:48:00,56.4,53.8,30.17,SSE,150,0.0,0.0,91,0.00,,---,0.00,VWS V14.01,2013-08-18 07:48:00,
2013-08-18 02:53:00,56.4,53.8,30.17,SSE,150,0.0,0.0,91,0.00,,---,0.00,VWS V14.01,2013-08-18 07:53:00,
2013-08-18 02:58:00,56.2,53.6,30.17,SSE,150,0.0,0.0,91,0.00,,---,0.00,VWS V14.01,2013-08-18 07:58:00,
2013-08-18 03:03:00,56.0,53.4,30.17,SSE,150,0.0,0.0,91,0.00,,---,0.00,VWS V14.01,2013-08-18 08:03:00,
2013-08-18 03:08:00,56.1,53.8,30.17,SSE,150,0.0,0.0,92,0.00,,---,0.00,VWS V14.01,2013-08-18 08:08:00,
2013-08-18 03:13:00,56.3,54.0,30.17,SSE,150,0.0,0.0,92,0.00,,---,0.00,VWS V14.01,2013-08-18 08:13:00,
2013-08-18 03:18:00,56.5,54.2,30.17,SSE,150,0.0,0.0,92,0.00,,---,0.00,VWS V14.01,2013-08-18 08:18:00,
2013-08-18 03:23:00,56.6,54.0,30.17,SSE,150,0.0,0.0,91,0.00,,---,0.00,VWS V14.01,2013-08-18 08:23:00,
2013-08-18 03:28:00,56.6,54.0,30.17,SSE,150,0.0,0.0,91,0.00,,---,0.00,VWS V14.01,2013-08-18 08:28:00,
2013-08-18 03:33:00,56.7,54.1,30.17,SSE,150,0.0,0.0,91,0.00,,---,0.00,VWS V14.01,2013-08-18 08:33:00,
2013-08-18 03:38:00,56.9,54.3,30.17,SSE,150,0.0,0.0,91,0.00,,---,0.00,VWS V14.01,2013-08-18 08:38:00,
2013-08-18 03:43:00,57.0,54.1,30.17,SSE,150,0.0,0.0,90,0.00,,---,0.00,VWS V14.01,2013-08-18 08:43:00,
2013-08-18 03:48:00,56.9,54.0,30.17,SSE,150,0.0,0.0,90,0.00,,---,0.00,VWS V14.01,2013-08-18 08:48:00,
2013-08-18 03:53:00,56.6,53.7,30.17,SSE,150,0.0,0.0,90,0.00,,---,0.00,VWS V14.01,2013-08-18 08:53:00,
2013-08-18 03:58:00,56.5,53.9,30.17,SSE,151,0.0,0.0,91,0.00,,---,0.00,VWS V14.01,2013-08-18 08:58:00,
2013-08-18 04:03:00,56.5,53.9,30.17,SSE,150,0.0,0.0,91,0.00,,---,0.00,VWS V14.01,2013-08-18 09:03:00,
2013-08-18 04:08:00,56.6,54.0,30.18,SSE,150,0.0,0.0,91,0.00,,---,0.00,VWS V14.01,2013-08-18 09:08:00,
2013-08-18 04:13:00,56.5,53.9,30.18,SSE,150,0.0,0.0,91,0.00,,---,0.00,VWS V14.01,2013-08-18 09:13:00,
2013-08-18 04:18:00,56.6,54.0,30.17,SSE,150,0.0,0.0,91,0.00,,---,0.00,VWS V14.01,2013-08-18 09:18:00,
2013-08-18 04:23:00,56.7,53.8,30.18,SSE,151,0.0,0.0,90,0.00,,---,0.00,VWS V14.01,2013-08-18 09:23:00,
2013-08-18 04:28:00,56.7,53.8,30.18,SSE,151,0.0,0.0,90,0.00,,---,0.00,VWS V14.01,2013-08-18 09:28:00,
2013-08-18 04:33:00,56.6,53.7,30.18,SSE,150,0.0,0.0,90,0.00,,---,0.00,VWS V14.01,2013-08-18 09:33:00,
2013-08-18 04:38:00,56.5,53.6,30.18,SSE,150,0.0,0.0,90,0.00,,---,0.00,VWS V14.01,2013-08-18 09:38:00,
2013-08-18 04:43:00,56.5,53.6,30.18,SSE,150,0.0,0.0,90,0.00,,---,0.00,VWS V14.01,2013-08-18 09:43:00,
2013-08-18 04:48:00,56.4,53.8,30.18,SSE,150,0.0,0.0,91,0.00,,---,0.00,VWS V14.01,2013-08-18 09:48:00,
2013-08-18 04:53:00,56.5,53.9,30.17,SSE,150,0.0,0.0,91,0.00,,---,0.00,VWS V14.01,2013-08-18 09:53:00,
2013-08-18 04:58:00,56.3,53.7,30.17,SSE,150,0.0,0.0,91,0.00,,---,0.00,VWS V14.01,2013-08-18 09:58:00,
2013-08-18 05:03:00,56.1,53.2,30.17,SSE,150,0.0,0.0,90,0.00,,---,0.00,VWS V14.01,2013-08-18 10:03:00,
2013-08-18 05:08:00,55.7,53.1,30.18,SSE,150,0.0,0.0,91,0.00,,---,0.00,VWS V14.01,2013-08-18 10:08:00,
2013-08-18 05:13:00,55.7,53.4,30.18,SSE,156,0.0,0.0,92,0.00,,---,0.00,VWS V14.01,2013-08-18 10:13:00,
2013-08-18 05:18:00,55.7,53.4,30.18,SSE,156,0.0,0.0,92,0.00,,---,0.00,VWS V14.01,2013-08-18 10:18:00,
2013-08-18 05:23:00,55.9,53.6,30.18,SSE,155,0.0,0.0,92,0.00,,---,0.00,VWS V14.01,2013-08-18 10:23:00,
2013-08-18 05:28:00,56.2,53.6,30.18,SSE,155,0.0,0.0,91,0.00,,---,0.00,VWS V14.01,2013-08-18 10:28:00,
2013-08-18 05:34:00,55.8,53.5,30.18,SSE,155,0.0,0.0,92,0.00,,---,0.00,VWS V14.01,2013-08-18 10:34:00,
2013-08-18 05:39:00,55.7,53.4,30.18,SSE,155,0.0,0.0,92,0.00,,---,0.00,VWS V14.01,2013-08-18 10:39:00,
2013-08-18 05:44:00,55.8,53.5,30.18,SSE,153,0.0,0.0,92,0.00,,---,0.00,VWS V14.01,2013-08-18 10:44:00,
2013-08-18 05:49:00,55.6,53.3,30.18,SSE,153,0.0,0.0,92,0.00,,---,0.00,VWS V14.01,2013-08-18 10:49:00,
2013-08-18 05:54:00,55.7,53.4,30.18,SSE,154,0.0,0.0,92,0.00,,---,0.00,VWS V14.01,2013-08-18 10:54:00,
2013-08-18 05:59:00,55.6,53.3,30.18,SSE,153,0.0,0.0,92,0.00,,---,0.00,VWS V14.01,2013-08-18 10:59:00,
2013-08-18 06:04:00,55.6,53.6,30.18,SSE,153,0.0,0.0,93,0.00,,---,0.00,VWS V14.01,2013-08-18 11:04:00,
2013-08-18 06:09:00,55.7,53.4,30.18,SSE,153,0.0,0.0,92,0.00,,---,0.00,VWS V14.01,2013-08-18 11:09:00,
2013-08-18 06:14:00,55.6,53.3,30.18,SSE,153,0.0,0.0,92,0.00,,---,0.00,VWS V14.01,2013-08-18 11:14:00,
2013-08-18 06:19:00,55.5,53.2,30.18,SSE,153,0.0,0.0,92,0.00,,---,0.00,VWS V14.01,2013-08-18 11:19:00,
2013-08-18 06:24:00,55.5,53.5,30.18,SSE,153,0.0,0.0,93,0.00,,---,0.00,VWS V14.01,2013-08-18 11:24:00,
2013-08-18 06:29:00,55.6,53.6,30.19,East,79,0.0,1.0,93,0.00,,---,0.00,VWS V14.01,2013-08-18 11:29:00,
2013-08-18 06:34:00,55.7,53.4,30.18,East,79,0.0,0.0,92,0.00,,---,0.00,VWS V14.01,2013-08-18 11:34:00,
2013-08-18 06:39:00,55.7,53.4,30.18,ESE,108,0.0,1.0,92,0.00,,---,0.00,VWS V14.01,2013-08-18 11:39:00,
2013-08-18 06:44:00,55.6,53.3,30.18,ESE,109,0.0,1.0,92,0.00,,---,0.00,VWS V14.01,2013-08-18 11:44:00,
2013-08-18 06:49:00,55.7,53.7,30.18,ESE,108,0.0,1.0,93,0.00,,---,0.00,VWS V14.01,2013-08-18 11:49:00,
2013-08-18 06:54:00,55.9,53.9,30.19,South,174,0.0,0.0,93,0.00,,---,0.00,VWS V14.01,2013-08-18 11:54:00,
2013-08-18 06:59:00,56.2,53.9,30.19,SSW,205,0.0,1.0,92,0.00,,---,0.00,VWS V14.01,2013-08-18 11:59:00,
2013-08-18 07:04:00,56.5,54.2,30.18,SSE,156,0.0,0.0,92,0.00,,---,0.00,VWS V14.01,2013-08-18 12:04:00,
2013-08-18 07:09:00,56.7,54.4,30.19,South,169,0.0,0.0,92,0.00,,---,0.00,VWS V14.01,2013-08-18 12:09:00,
2013-08-18 07:14:00,57.0,54.4,30.19,South,169,0.0,0.0,91,0.00,,---,0.00,VWS V14.01,2013-08-18 12:14:00,
2013-08-18 07:19:00,57.2,54.6,30.19,South,169,0.0,0.0,91,0.00,,---,0.00,VWS V14.01,2013-08-18 12:19:00,
2013-08-18 07:24:00,57.5,54.9,30.19,SSW,200,0.0,0.0,91,0.00,,---,0.00,VWS V14.01,2013-08-18 12:24:00,
2013-08-18 07:29:00,57.9,55.0,30.19,SSW,198,0.0,0.0,90,0.00,,---,0.00,VWS V14.01,2013-08-18 12:29:00,
2013-08-18 07:34:00,58.3,55.4,30.19,SSW,210,0.0,0.0,90,0.00,,---,0.00,VWS V14.01,2013-08-18 12:34:00,
2013-08-18 07:39:00,58.7,55.5,30.19,SSE,168,0.0,0.0,89,0.00,,---,0.00,VWS V14.01,2013-08-18 12:39:00,
2013-08-18 07:44:00,59.0,55.8,30.19,SE,141,0.0,1.0,89,0.00,,---,0.00,VWS V14.01,2013-08-18 12:44:00,
2013-08-18 07:49:00,59.5,56.3,30.19,ESE,121,1.0,1.0,89,0.00,,---,0.00,VWS V14.01,2013-08-18 12:49:00,
2013-08-18 07:54:00,60.0,56.4,30.19,West,267,0.0,1.0,88,0.00,,---,0.00,VWS V14.01,2013-08-18 12:54:00,
2013-08-18 07:59:00,60.4,56.5,30.19,SSW,195,0.0,2.0,87,0.00,,---,0.00,VWS V14.01,2013-08-18 12:59:00,
2013-08-18 08:04:00,61.0,57.1,30.19,SE,127,0.0,2.0,87,0.00,,---,0.00,VWS V14.01,2013-08-18 13:04:00,
2013-08-18 08:09:00,61.4,57.2,30.19,SSW,194,0.0,2.0,86,0.00,,---,0.00,VWS V14.01,2013-08-18 13:09:00,
2013-08-18 08:14:00,61.8,57.6,30.19,SW,224,0.0,2.0,86,0.00,,---,0.00,VWS V14.01,2013-08-18 13:14:00,
2013-08-18 08:19:00,62.2,57.3,30.19,West,261,1.0,2.0,84,0.00,,---,0.00,VWS V14.01,2013-08-18 13:19:00,
2013-08-18 08:24:00,62.6,57.7,30.19,SE,130,1.0,2.0,84,0.00,,---,0.00,VWS V14.01,2013-08-18 13:24:00,
2013-08-18 08:29:00,63.1,57.5,30.18,SE,132,0.0,3.0,82,0.00,,---,0.00,VWS V14.01,2013-08-18 13:29:00,
2013-08-18 08:34:00,63.5,57.9,30.18,West,273,1.0,4.0,82,0.00,,---,0.00,VWS V14.01,2013-08-18 13:34:00,
2013-08-18 08:39:00,64.0,57.7,30.19,South,180,0.0,4.0,80,0.00,,---,0.00,VWS V14.01,2013-08-18 13:39:00,
2013-08-18 08:44:00,64.4,58.1,30.19,SSW,210,1.0,6.0,80,0.00,,---,0.00,VWS V14.01,2013-08-18 13:44:00,
2013-08-18 08:49:00,64.9,58.6,30.18,WSW,257,1.0,6.0,80,0.00,,---,0.00,VWS V14.01,2013-08-18 13:49:00,
2013-08-18 08:54:00,65.6,58.6,30.18,WSW,245,2.0,4.0,78,0.00,,---,0.00,VWS V14.01,2013-08-18 13:54:00,
2013-08-18 08:59:00,66.0,58.6,30.18,SW,229,2.0,6.0,77,0.00,,---,0.00,VWS V14.01,2013-08-18 13:59:00,
2013-08-18 09:04:00,66.5,58.7,30.18,SW,225,0.0,4.0,76,0.00,,---,0.00,VWS V14.01,2013-08-18 14:04:00,
2013-08-18 09:09:00,67.3,59.1,30.18,WSW,252,3.0,5.0,75,0.00,,---,0.00,VWS V14.01,2013-08-18 14:09:00,
2013-08-18 09:14:00,67.7,58.7,30.18,SSW,194,0.0,4.0,73,0.00,,---,0.00,VWS V14.01,2013-08-18 14:14:00,
2013-08-18 09:19:00,68.4,59.4,30.18,SSE,155,5.0,6.0,73,0.00,,---,0.00,VWS V14.01,2013-08-18 14:19:00,
2013-08-18 09:24:00,69.0,60.4,30.19,SW,214,0.0,4.0,74,0.00,,---,0.00,VWS V14.01,2013-08-18 14:24:00,
2013-08-18 09:29:00,69.6,59.8,30.18,WNW,292,0.0,4.0,71,0.00,,---,0.00,VWS V14.01,2013-08-18 14:29:00,
2013-08-18 09:34:00,70.2,60.8,30.18,South,169,1.0,3.0,72,0.00,,---,0.00,VWS V14.01,2013-08-18 14:34:00,
2013-08-18 09:39:00,70.6,60.8,30.18,WNW,286,3.0,4.0,71,0.00,,---,0.00,VWS V14.01,2013-08-18 14:39:00,
2013-08-18 09:44:00,70.9,60.6,30.18,West,262,1.0,4.0,70,0.00,,---,0.00,VWS V14.01,2013-08-18 14:44:00,
2013-08-18 09:49:00,71.4,60.3,30.18,ENE,68,0.0,4.0,68,0.00,,---,0.00,VWS V14.01,2013-08-18 14:49:00,
2013-08-18 09:54:00,71.8,60.7,30.18,WNW,298,1.0,6.0,68,0.00,,---,0.00,VWS V14.01,2013-08-18 14:54:00,
2013-08-18 09:59:00,72.2,60.7,30.18,SSE,163,2.0,6.0,67,0.00,,---,0.00,VWS V14.01,2013-08-18 14:59:00,
2013-08-18 10:04:00,72.6,61.9,30.18,ENE,58,1.0,5.0,69,0.00,,---,0.00,VWS V14.01,2013-08-18 15:04:00,
2013-08-18 10:09:00,72.9,60.5,30.18,ENE,59,1.0,5.0,65,0.00,,---,0.00,VWS V14.01,2013-08-18 15:09:00,
2013-08-18 10:14:00,73.1,60.7,30.18,WSW,249,3.0,5.0,65,0.00,,---,0.00,VWS V14.01,2013-08-18 15:14:00,
2013-08-18 10:19:00,72.9,60.0,30.18,West,263,6.0,7.0,64,0.00,,---,0.00,VWS V14.01,2013-08-18 15:19:00,
2013-08-18 10:25:00,73.4,60.9,30.18,WNW,284,0.0,2.0,65,0.00,,---,0.00,VWS V14.01,2013-08-18 15:25:00,
2013-08-18 10:30:00,74.0,61.1,30.18,SSE,153,0.0,6.0,64,0.00,,---,0.00,VWS V14.01,2013-08-18 15:30:00,
2013-08-18 10:35:00,74.3,60.9,30.18,WSW,240,1.0,3.0,63,0.00,,---,0.00,VWS V14.01,2013-08-18 15:35:00,
2013-08-18 10:40:00,74.6,60.3,30.18,WNW,285,0.0,5.0,61,0.00,,---,0.00,VWS V14.01,2013-08-18 15:40:00,
2013-08-18 10:45:00,74.8,60.9,30.18,SE,139,3.0,4.0,62,0.00,,---,0.00,VWS V14.01,2013-08-18 15:45:00,
2013-08-18 10:50:00,75.2,62.6,30.18,ESE,120,0.0,4.0,65,0.00,,---,0.00,VWS V14.01,2013-08-18 15:50:00,
2013-08-18 10:55:00,75.8,60.9,30.18,WNW,287,1.0,7.0,60,0.00,,---,0.00,VWS V14.01,2013-08-18 15:55:00,
2013-08-18 11:00:00,75.7,60.8,30.17,NE,55,2.0,7.0,60,0.00,,---,0.00,VWS V14.01,2013-08-18 16:00:00,
2013-08-18 11:05:00,75.7,60.8,30.17,WSW,253,1.0,8.0,60,0.00,,---,0.00,VWS V14.01,2013-08-18 16:05:00,
2013-08-18 11:10:00,76.6,61.7,30.17,West,266,4.0,8.0,60,0.00,,---,0.00,VWS V14.01,2013-08-18 16:10:00,
2013-08-18 11:15:00,76.7,60.3,30.17,SE,138,6.0,6.0,57,0.00,,---,0.00,VWS V14.01,2013-08-18 16:15:00,
2013-08-18 11:20:00,76.6,60.2,30.16,ESE,103,1.0,7.0,57,0.00,,---,0.00,VWS V14.01,2013-08-18 16:20:00,
2013-08-18 11:25:00,76.5,59.2,30.16,ESE,103,3.0,8.0,55,0.00,,---,0.00,VWS V14.01,2013-08-18 16:25:00,
2013-08-18 11:30:00,76.8,61.4,30.16,West,271,5.0,8.0,59,0.00,,---,0.00,VWS V14.01,2013-08-18 16:30:00,
2013-08-18 11:35:00,77.0,59.6,30.16,NW,310,3.0,9.0,55,0.00,,---,0.00,VWS V14.01,2013-08-18 16:35:00,
2013-08-18 11:40:00,76.8,60.9,30.16,SSW,195,3.0,9.0,58,0.00,,---,0.00,VWS V14.01,2013-08-18 16:40:00,
2013-08-18 11:45:00,77.5,61.1,30.16,NW,314,3.0,7.0,57,0.00,,---,0.00,VWS V14.01,2013-08-18 16:45:00,
2013-08-18 11:50:00,77.8,60.4,30.16,NW,321,4.0,7.0,55,0.00,,---,0.00,VWS V14.01,2013-08-18 16:50:00,
2013-08-18 11:55:00,77.7,59.2,30.16,SSE,162,0.0,9.0,53,0.00,,---,0.00,VWS V14.01,2013-08-18 16:55:00,
2013-08-18 12:00:00,78.1,60.1,30.15,SSW,201,2.0,9.0,54,0.00,,---,0.00,VWS V14.01,2013-08-18 17:00:00,
2013-08-18 12:05:00,77.8,59.8,30.15,WSW,249,5.0,6.0,54,0.00,,---,0.00,VWS V14.01,2013-08-18 17:05:00,
2013-08-18 12:10:00,77.9,59.4,30.15,West,263,0.0,7.0,53,0.00,,---,0.00,VWS V14.01,2013-08-18 17:10:00,
2013-08-18 12:15:00,77.2,57.1,30.15,East,91,1.0,7.0,50,0.00,,---,0.00,VWS V14.01,2013-08-18 17:15:00,
2013-08-18 12:20:00,76.7,57.2,30.15,NNW,343,3.0,8.0,51,0.00,,---,0.00,VWS V14.01,2013-08-18 17:20:00,
2013-08-18 12:25:00,76.8,57.3,30.14,SSW,208,1.0,9.0,51,0.00,,---,0.00,VWS V14.01,2013-08-18 17:25:00,
2013-08-18 12:30:00,76.9,57.4,30.15,SSE,153,6.0,9.0,51,0.00,,---,0.00,VWS V14.01,2013-08-18 17:30:00,
2013-08-18 12:35:00,77.3,58.3,30.14,WNW,295,1.0,8.0,52,0.00,,---,0.00,VWS V14.01,2013-08-18 17:35:00,
2013-08-18 12:40:00,77.0,57.5,30.14,WSW,257,0.0,8.0,51,0.00,,---,0.00,VWS V14.01,2013-08-18 17:40:00,
2013-08-18 12:45:00,77.7,58.2,30.14,SSW,210,1.0,11.0,51,0.00,,---,0.00,VWS V14.01,2013-08-18 17:45:00,
2013-08-18 12:50:00,78.4,58.8,30.14,SE,131,1.0,11.0,51,0.00,,---,0.00,VWS V14.01,2013-08-18 17:50:00,
2013-08-18 12:55:00,78.6,59.0,30.13,WNW,298,2.0,8.0,51,0.00,,---,0.00,VWS V14.01,2013-08-18 17:55:00,
2013-08-18 13:00:00,78.9,59.2,30.13,SSE,150,4.0,8.0,51,0.00,,---,0.00,VWS V14.01,2013-08-18 18:00:00,
2013-08-18 13:05:00,79.3,60.2,30.13,SE,138,3.0,11.0,52,0.00,,---,0.00,VWS V14.01,2013-08-18 18:05:00,
2013-08-18 13:10:00,79.2,59.5,30.12,West,262,2.0,11.0,51,0.00,,---,0.00,VWS V14.01,2013-08-18 18:10:00,
2013-08-18 13:15:00,78.7,59.1,30.12,SSW,204,7.0,8.0,51,0.00,,---,0.00,VWS V14.01,2013-08-18 18:15:00,
2013-08-18 13:20:00,79.3,59.1,30.12,South,173,4.0,9.0,50,0.00,,---,0.00,VWS V14.01,2013-08-18 18:20:00,
2013-08-18 13:25:00,79.2,57.8,30.11,West,276,4.0,9.0,48,0.00,,---,0.00,VWS V14.01,2013-08-18 18:25:00,
2013-08-18 13:30:00,79.4,58.6,30.11,West,270,2.0,9.0,49,0.00,,---,0.00,VWS V14.01,2013-08-18 18:30:00,
2013-08-18 13:35:00,80.1,60.4,30.11,ESE,106,6.0,6.0,51,0.00,,---,0.00,VWS V14.01,2013-08-18 18:35:00,
2013-08-18 13:40:00,79.9,58.5,30.11,SE,125,3.0,3.0,48,0.00,,---,0.00,VWS V14.01,2013-08-18 18:40:00,
2013-08-18 13:45:00,80.0,58.6,30.11,NE,38,2.0,10.0,48,0.00,,---,0.00,VWS V14.01,2013-08-18 18:45:00,
2013-08-18 13:50:00,80.2,60.5,30.10,West,270,4.0,4.0,51,0.00,,---,0.00,VWS V14.01,2013-08-18 18:50:00,
2013-08-18 13:55:00,80.5,58.4,30.10,SW,225,5.0,9.0,47,0.00,,---,0.00,VWS V14.01,2013-08-18 18:55:00,
2013-08-18 14:00:00,80.4,58.3,30.10,SW,229,0.0,0.0,47,0.00,,---,0.00,VWS V14.01,2013-08-18 19:00:00,
2013-08-18 14:05:00,80.7,59.2,30.10,WSW,252,2.0,5.0,48,0.00,,---,0.00,VWS V14.01,2013-08-18 19:05:00,
2013-08-18 14:10:00,80.9,58.8,30.10,SSW,198,3.0,6.0,47,0.00,,---,0.00,VWS V14.01,2013-08-18 19:10:00,
2013-08-18 14:15:00,80.8,58.1,30.10,SE,142,1.0,10.0,46,0.00,,---,0.00,VWS V14.01,2013-08-18 19:15:00,
2013-08-18 14:20:00,80.8,59.3,30.10,West,270,2.0,3.0,48,0.00,,---,0.00,VWS V14.01,2013-08-18 19:20:00,
2013-08-18 14:25:00,81.0,58.9,30.10,SSW,207,2.0,10.0,47,0.00,,---,0.00,VWS V14.01,2013-08-18 19:25:00,
2013-08-18 14:30:00,80.8,58.1,30.10,ENE,68,5.0,5.0,46,0.00,,---,0.00,VWS V14.01,2013-08-18 19:30:00,
2013-08-18 14:35:00,80.8,58.7,30.11,SSW,203,0.0,10.0,47,0.00,,---,0.00,VWS V14.01,2013-08-18 19:35:00,
2013-08-18 14:40:00,80.8,59.9,30.11,WSW,246,7.0,7.0,49,0.00,,---,0.00,VWS V14.01,2013-08-18 19:40:00,
2013-08-18 14:45:00,80.6,58.5,30.11,West,281,6.0,9.0,47,0.00,,---,0.00,VWS V14.01,2013-08-18 19:45:00,
2013-08-18 14:50:00,79.9,59.0,30.11,SW,231,2.0,5.0,49,0.00,,---,0.00,VWS V14.01,2013-08-18 19:50:00,
2013-08-18 14:55:00,79.8,57.8,30.11,WSW,248,1.0,9.0,47,0.00,,---,0.00,VWS V14.01,2013-08-18 19:55:00,
2013-08-18 15:00:00,79.8,58.4,30.11,South,170,5.0,5.0,48,0.00,,---,0.00,VWS V14.01,2013-08-18 20:00:00,
2013-08-18 15:05:00,80.4,58.9,30.11,West,281,3.0,5.0,48,0.00,,---,0.00,VWS V14.01,2013-08-18 20:05:00,
2013-08-18 15:10:00,80.9,58.2,30.11,NW,311,4.0,6.0,46,0.00,,---,0.00,VWS V14.01,2013-08-18 20:10:00,
2013-08-18 15:15:00,81.1,59.0,30.11,West,280,7.0,9.0,47,0.00,,---,0.00,VWS V14.01,2013-08-18 20:15:00,
2013-08-18 15:21:00,81.1,57.8,30.11,WNW,298,4.0,5.0,45,0.00,,---,0.00,VWS V14.01,2013-08-18 20:21:00,
2013-08-18 15:26:00,80.8,57.5,30.11,WNW,289,3.0,8.0,45,0.00,,---,0.00,VWS V14.01,2013-08-18 20:26:00,
2013-08-18 15:31:00,80.3,57.0,30.11,ESE,121,4.0,8.0,45,0.00,,---,0.00,VWS V14.01,2013-08-18 20:31:00,
2013-08-18 15:36:00,80.9,58.8,30.11,East,82,2.0,14.0,47,0.00,,---,0.00,VWS V14.01,2013-08-18 20:36:00,
2013-08-18 15:41:00,81.4,58.7,30.11,SW,233,3.0,7.0,46,0.00,,---,0.00,VWS V14.01,2013-08-18 20:41:00,
2013-08-18 15:46:00,80.8,58.1,30.11,WNW,298,2.0,11.0,46,0.00,,---,0.00,VWS V14.01,2013-08-18 20:46:00,
2013-08-18 15:51:00,80.5,59.0,30.11,WNW,284,3.0,6.0,48,0.00,,---,0.00,VWS V14.01,2013-08-18 20:51:00,
2013-08-18 15:56:00,80.8,58.1,30.11,SE,139,3.0,11.0,46,0.00,,---,0.00,VWS V14.01,2013-08-18 20:56:00,
2013-08-18 16:01:00,81.3,59.8,30.11,NNW,334,3.0,7.0,48,0.00,,---,0.00,VWS V14.01,2013-08-18 21:01:00,
2013-08-18 16:06:00,81.0,57.7,30.11,WNW,291,2.0,8.0,45,0.00,,---,0.00,VWS V14.01,2013-08-18 21:06:00,
2013-08-18 16:11:00,80.8,58.7,30.11,SSW,208,6.0,6.0,47,0.00,,---,0.00,VWS V14.01,2013-08-18 21:11:00,
2013-08-18 16:16:00,80.4,58.9,30.10,WSW,253,4.0,9.0,48,0.00,,---,0.00,VWS V14.01,2013-08-18 21:16:00,
2013-08-18 16:21:00,80.8,58.7,30.10,West,259,1.0,8.0,47,0.00,,---,0.00,VWS V14.01,2013-08-18 21:21:00,
2013-08-18 16:26:00,80.4,59.5,30.10,NE,48,2.0,8.0,49,0.00,,---,0.00,VWS V14.01,2013-08-18 21:26:00,
2013-08-18 16:31:00,80.7,59.2,30.10,SSW,211,1.0,5.0,48,0.00,,---,0.00,VWS V14.01,2013-08-18 21:31:00,
2013-08-18 16:36:00,80.7,59.2,30.10,WSW,252,3.0,8.0,48,0.00,,---,0.00,VWS V14.01,2013-08-18 21:36:00,
2013-08-18 16:41:00,80.4,58.3,30.10,West,271,0.0,4.0,47,0.00,,---,0.00,VWS V14.01,2013-08-18 21:41:00,
2013-08-18 16:46:00,80.4,58.3,30.09,SE,132,1.0,6.0,47,0.00,,---,0.00,VWS V14.01,2013-08-18 21:46:00,
2013-08-18 16:51:00,81.0,58.9,30.09,SSE,167,1.0,4.0,47,0.00,,---,0.00,VWS V14.01,2013-08-18 21:51:00,
2013-08-18 16:56:00,81.8,60.8,30.09,WSW,246,0.0,9.0,49,0.00,,---,0.00,VWS V14.01,2013-08-18 21:56:00,
2013-08-18 17:01:00,82.3,59.5,30.09,South,184,1.0,4.0,46,0.00,,---,0.00,VWS V14.01,2013-08-18 22:01:00,
2013-08-18 17:06:00,81.8,59.0,30.09,WNW,285,1.0,10.0,46,0.00,,---,0.00,VWS V14.01,2013-08-18 22:06:00,
2013-08-18 17:11:00,81.7,59.5,30.09,NNW,328,2.0,7.0,47,0.00,,---,0.00,VWS V14.01,2013-08-18 22:11:00,
2013-08-18 17:16:00,81.4,59.3,30.08,ESE,105,1.0,8.0,47,0.00,,---,0.00,VWS V14.01,2013-08-18 22:16:00,
2013-08-18 17:21:00,81.0,58.9,30.09,East,85,1.0,3.0,47,0.00,,---,0.00,VWS V14.01,2013-08-18 22:21:00,
2013-08-18 17:26:00,80.1,59.2,30.08,WNW,283,4.0,6.0,49,0.00,,---,0.00,VWS V14.01,2013-08-18 22:26:00,
2013-08-18 17:31:00,79.2,58.4,30.08,SW,232,2.0,4.0,49,0.00,,---,0.00,VWS V14.01,2013-08-18 22:31:00,
2013-08-18 17:36:00,79.0,58.2,30.08,SSW,207,1.0,8.0,49,0.00,,---,0.00,VWS V14.01,2013-08-18 22:36:00,
2013-08-18 17:41:00,79.3,58.5,30.08,SW,231,1.0,3.0,49,0.00,,---,0.00,VWS V14.01,2013-08-18 22:41:00,
2013-08-18 17:46:00,79.5,59.2,30.08,West,278,2.0,5.0,50,0.00,,---,0.00,VWS V14.01,2013-08-18 22:46:00,
2013-08-18 17:51:00,79.1,58.3,30.08,West,276,0.0,1.0,49,0.00,,---,0.00,VWS V14.01,2013-08-18 22:51:00,
2013-08-18 17:56:00,78.6,59.0,30.08,WSW,239,1.0,9.0,51,0.00,,---,0.00,VWS V14.01,2013-08-18 22:56:00,
2013-08-18 18:01:00,78.9,59.2,30.08,WSW,239,3.0,5.0,51,0.00,,---,0.00,VWS V14.01,2013-08-18 23:01:00,
2013-08-18 18:06:00,79.0,59.3,30.08,West,269,0.0,5.0,51,0.00,,---,0.00,VWS V14.01,2013-08-18 23:06:00,
2013-08-18 18:11:00,79.3,60.2,30.08,WNW,291,2.0,2.0,52,0.00,,---,0.00,VWS V14.01,2013-08-18 23:11:00,
2013-08-18 18:16:00,79.2,59.5,30.07,SE,141,0.0,4.0,51,0.00,,---,0.00,VWS V14.01,2013-08-18 23:16:00,
2013-08-18 18:21:00,79.0,59.3,30.07,SE,127,1.0,4.0,51,0.00,,---,0.00,VWS V14.01,2013-08-18 23:21:00,
2013-08-18 18:26:00,79.0,59.3,30.07,SSW,193,0.0,5.0,51,0.00,,---,0.00,VWS V14.01,2013-08-18 23:26:00,
2013-08-18 18:31:00,79.2,60.6,30.07,SW,225,2.0,2.0,53,0.00,,---,0.00,VWS V14.01,2013-08-18 23:31:00,
2013-08-18 18:36:00,79.3,59.6,30.07,WSW,245,2.0,5.0,51,0.00,,---,0.00,VWS V14.01,2013-08-18 23:36:00,
2013-08-18 18:41:00,78.9,59.8,30.07,WSW,245,1.0,4.0,52,0.00,,---,0.00,VWS V14.01,2013-08-18 23:41:00,
2013-08-18 18:46:00,78.7,59.1,30.07,SW,226,5.0,6.0,51,0.00,,---,0.00,VWS V14.01,2013-08-18 23:46:00,
2013-08-18 18:51:00,78.5,59.4,30.07,SSW,201,2.0,4.0,52,0.00,,---,0.00,VWS V14.01,2013-08-18 23:51:00,
2013-08-18 18:56:00,78.3,59.2,30.07,WSW,250,2.0,6.0,52,0.00,,---,0.00,VWS V14.01,2013-08-18 23:56:00,
2013-08-18 19:01:00,78.1,59.6,30.07,WSW,252,2.0,3.0,53,0.00,,---,0.00,VWS V14.01,2013-08-19 00:01:00,
2013-08-18 19:06:00,77.9,59.4,30.07,SSW,207,0.0,3.0,53,0.00,,---,0.00,VWS V14.01,2013-08-19 00:06:00,
2013-08-18 19:11:00,77.9,59.9,30.07,SSW,198,0.0,1.0,54,0.00,,---,0.00,VWS V14.01,2013-08-19 00:11:00,
2013-08-18 19:16:00,77.8,60.4,30.07,WSW,241,0.0,2.0,55,0.00,,---,0.00,VWS V14.01,2013-08-19 00:16:00,
2013-08-18 19:21:00,77.8,60.9,30.07,West,264,0.0,0.0,56,0.00,,---,0.00,VWS V14.01,2013-08-19 00:21:00,
2013-08-18 19:26:00,77.4,60.5,30.07,SSW,203,0.0,3.0,56,0.00,,---,0.00,VWS V14.01,2013-08-19 00:26:00,
2013-08-18 19:31:00,77.0,60.1,30.07,South,174,0.0,1.0,56,0.00,,---,0.00,VWS V14.01,2013-08-19 00:31:00,
2013-08-18 19:36:00,76.6,60.2,30.07,WSW,253,0.0,1.0,57,0.00,,---,0.00,VWS V14.01,2013-08-19 00:36:00,
2013-08-18 19:41:00,76.0,60.2,30.07,SE,134,0.0,0.0,58,0.00,,---,0.00,VWS V14.01,2013-08-19 00:41:00,
2013-08-18 19:46:00,75.6,60.3,30.07,SSE,166,1.0,1.0,59,0.00,,---,0.00,VWS V14.01,2013-08-19 00:46:00,
2013-08-18 19:51:00,75.0,60.2,30.07,SE,132,0.0,0.0,60,0.00,,---,0.00,VWS V14.01,2013-08-19 00:51:00,
2013-08-18 19:57:00,74.4,60.1,30.07,SSE,150,0.0,1.0,61,0.00,,---,0.00,VWS V14.01,2013-08-19 00:57:00,
2013-08-18 20:02:00,73.7,59.9,30.07,ESE,121,0.0,0.0,62,0.00,,---,0.00,VWS V14.01,2013-08-19 01:02:00,
2013-08-18 20:07:00,73.1,59.8,30.06,SSE,160,0.0,1.0,63,0.00,,---,0.00,VWS V14.01,2013-08-19 01:07:00,
2013-08-18 20:12:00,72.6,60.2,30.07,SSE,160,0.0,0.0,65,0.00,,---,0.00,VWS V14.01,2013-08-19 01:12:00,
2013-08-18 20:17:00,72.0,60.0,30.07,SSE,159,0.0,0.0,66,0.00,,---,0.00,VWS V14.01,2013-08-19 01:17:00,
2013-08-18 20:22:00,71.5,60.0,30.07,SSE,160,0.0,0.0,67,0.00,,---,0.00,VWS V14.01,2013-08-19 01:22:00,
2013-08-18 20:27:00,70.9,60.6,30.07,SSE,159,0.0,0.0,70,0.00,,---,0.00,VWS V14.01,2013-08-19 01:27:00,
2013-08-18 20:32:00,70.2,60.4,30.06,SSE,159,0.0,0.0,71,0.00,,---,0.00,VWS V14.01,2013-08-19 01:32:00,
2013-08-18 20:37:00,69.7,60.3,30.06,SSE,160,0.0,0.0,72,0.00,,---,0.00,VWS V14.01,2013-08-19 01:37:00,
2013-08-18 20:42:00,69.1,60.1,30.06,SSE,159,0.0,0.0,73,0.00,,---,0.00,VWS V14.01,2013-08-19 01:42:00,
2013-08-18 20:47:00,68.6,60.4,30.06,SSE,159,0.0,0.0,75,0.00,,---,0.00,VWS V14.01,2013-08-19 01:47:00,
2013-08-18 20:52:00,68.3,60.1,30.06,SSE,159,0.0,0.0,75,0.00,,---,0.00,VWS V14.01,2013-08-19 01:52:00,
2013-08-18 20:57:00,68.1,60.3,30.06,SSE,159,0.0,0.0,76,0.00,,---,0.00,VWS V14.01,2013-08-19 01:57:00,
2013-08-18 21:02:00,67.9,60.1,30.06,SSE,159,0.0,0.0,76,0.00,,---,0.00,VWS V14.01,2013-08-19 02:02:00,
2013-08-18 21:07:00,67.8,60.0,30.06,East,89,0.0,1.0,76,0.00,,---,0.00,VWS V14.01,2013-08-19 02:07:00,
2013-08-18 21:12:00,67.6,60.5,30.06,East,89,0.0,0.0,78,0.00,,---,0.00,VWS V14.01,2013-08-19 02:12:00,
2013-08-18 21:17:00,67.1,60.0,30.05,East,89,0.0,0.0,78,0.00,,---,0.00,VWS V14.01,2013-08-19 02:17:00,
2013-08-18 21:22:00,67.0,59.9,30.06,East,89,0.0,0.0,78,0.00,,---,0.00,VWS V14.01,2013-08-19 02:22:00,
2013-08-18 21:27:00,67.0,59.9,30.06,East,89,0.0,0.0,78,0.00,,---,0.00,VWS V14.01,2013-08-19 02:27:00,
2013-08-18 21:32:00,66.9,59.8,30.06,ESE,116,0.0,1.0,78,0.00,,---,0.00,VWS V14.01,2013-08-19 02:32:00,
2013-08-18 21:37:00,66.9,59.8,30.05,ESE,116,0.0,1.0,78,0.00,,---,0.00,VWS V14.01,2013-08-19 02:37:00,
2013-08-18 21:42:00,66.9,60.2,30.06,ESE,115,0.0,0.0,79,0.00,,---,0.00,VWS V14.01,2013-08-19 02:42:00,
2013-08-18 21:47:00,66.7,60.0,30.05,SE,129,0.0,2.0,79,0.00,,---,0.00,VWS V14.01,2013-08-19 02:47:00,
2013-08-18 21:52:00,66.5,59.8,30.06,SW,216,0.0,0.0,79,0.00,,---,0.00,VWS V14.01,2013-08-19 02:52:00,
2013-08-18 21:57:00,66.3,60.0,30.06,East,83,1.0,2.0,80,0.00,,---,0.00,VWS V14.01,2013-08-19 02:57:00,
2013-08-18 22:02:00,66.0,59.7,30.06,East,91,0.0,0.0,80,0.00,,---,0.00,VWS V14.01,2013-08-19 03:02:00,
2013-08-18 22:07:00,65.5,59.5,30.06,East,92,0.0,1.0,81,0.00,,---,0.00,VWS V14.01,2013-08-19 03:07:00,
2013-08-18 22:12:00,65.2,59.6,30.05,SSE,160,0.0,1.0,82,0.00,,---,0.00,VWS V14.01,2013-08-19 03:12:00,
2013-08-18 22:17:00,65.0,59.4,30.06,SSE,165,0.0,1.0,82,0.00,,---,0.00,VWS V14.01,2013-08-19 03:17:00,
2013-08-18 22:22:00,64.8,59.2,30.06,SSE,159,0.0,1.0,82,0.00,,---,0.00,VWS V14.01,2013-08-19 03:22:00,
2013-08-18 22:27:00,64.5,59.2,30.05,SSE,159,0.0,1.0,83,0.00,,---,0.00,VWS V14.01,2013-08-19 03:27:00,
2013-08-18 22:32:00,64.3,59.0,30.05,SSE,159,0.0,0.0,83,0.00,,---,0.00,VWS V14.01,2013-08-19 03:32:00,
2013-08-18 22:37:00,64.1,59.2,30.05,SSE,159,0.0,0.0,84,0.00,,---,0.00,VWS V14.01,2013-08-19 03:37:00,
2013-08-18 22:42:00,64.0,59.1,30.05,SSE,160,0.0,0.0,84,0.00,,---,0.00,VWS V14.01,2013-08-19 03:42:00,
2013-08-18 22:47:00,63.8,58.9,30.05,SSE,159,0.0,0.0,84,0.00,,---,0.00,VWS V14.01,2013-08-19 03:47:00,
2013-08-18 22:52:00,63.6,58.7,30.06,SSE,159,0.0,0.0,84,0.00,,---,0.00,VWS V14.01,2013-08-19 03:52:00,
2013-08-18 22:57:00,63.3,58.7,30.06,SSE,159,0.0,0.0,85,0.00,,---,0.00,VWS V14.01,2013-08-19 03:57:00,
2013-08-18 23:01:00,63.2,58.6,30.05,SSE,159,0.0,0.0,85,0.00,,---,0.00,VWS V14.01,2013-08-19 04:01:00,
2013-08-18 23:02:00,63.2,58.6,30.06,SSE,159,0.0,0.0,85,0.00,,---,0.00,VWS V14.01,2013-08-19 04:02:00,
2013-08-18 23:07:00,63.0,58.8,30.06,SSE,160,0.0,0.0,86,0.00,,---,0.00,VWS V14.01,2013-08-19 04:07:00,
2013-08-18 23:12:00,62.7,58.5,30.06,SSE,159,0.0,0.0,86,0.00,,---,0.00,VWS V14.01,2013-08-19 04:12:00,
2013-08-18 23:17:00,62.6,58.7,30.06,SSE,159,0.0,0.0,87,0.00,,---,0.00,VWS V14.01,2013-08-19 04:17:00,
2013-08-18 23:22:00,62.4,58.5,30.06,SSE,159,0.0,0.0,87,0.00,,---,0.00,VWS V14.01,2013-08-19 04:22:00,
2013-08-18 23:27:00,62.2,58.3,30.06,SSE,160,0.0,0.0,87,0.00,,---,0.00,VWS V14.01,2013-08-19 04:27:00,
2013-08-18 23:32:00,62.1,58.2,30.06,SSE,159,0.0,0.0,87,0.00,,---,0.00,VWS V14.01,2013-08-19 04:32:00,
2013-08-18 23:37:00,61.9,58.3,30.06,SSE,159,0.0,0.0,88,0.00,,---,0.00,VWS V14.01,2013-08-19 04:37:00,
2013-08-18 23:42:00,61.8,58.2,30.07,SSE,159,0.0,0.0,88,0.00,,---,0.00,VWS V14.01,2013-08-19 04:42:00,
2013-08-18 23:47:00,61.7,58.4,30.06,SSE,160,0.0,0.0,89,0.00,,---,0.00,VWS V14.01,2013-08-19 04:47:00,
2013-08-18 23:52:00,61.6,58.3,30.06,SSE,159,0.0,0.0,89,0.00,,---,0.00,VWS V14.01,2013-08-19 04:52:00,
2013-08-18 23:57:00,61.4,58.1,30.06,SSE,160,0.0,0.0,89,0.00,,---,0.00,VWS V14.01,2013-08-19 04:57:00,